Home > Weather > Rovaniemi > Past weeks

Flag for Finland Past Weather in Rovaniemi, Finland — Yesterday and Last 2 Weeks

Now
73 °F

Passing clouds.


Feels Like: 77 °F
Forecast: 64 / 78 °F
Wind: 3 mph from North

Location: Rovaniemi Airport

Current Time: Jul 24, 2016 at 11:49:26 AM

Latest Report: Jul 24, 2016 at 11:20 AM


Visibility: N/A

Pressure: 30.12 "Hg

Humidity: 57%

Dew Point: 57 °F

Location of RovaniemiLocation

Past Weather in Rovaniemi — Graph

°F

Rovaniemi Temperature Yesterday

Maximum temperature yesterday: 75 °F (at 5:50 PM)
Minimum temperature yesterday: 57 °F (at 3:50 AM)
Average temperature yesterday: 67 °F

High & Low Weather Summary for the Past Weeks

 TemperatureHumidityPressure
High77 °F (Jul 22, 4:20 PM)100% (Jul 9, 11:50 PM)30.21 "Hg (Jul 9, 11:50 PM)
Low48 °F (Jul 19, 4:20 AM)29% (Jul 21, 7:50 PM)29.45 "Hg (Jul 12, 1:50 PM)
Average62 °F68%29.79 "Hg
* Reported Jul 9 10:20 AM — Jul 24 10:20 AM, Rovaniemi, Weather by CustomWeather, © 2016

Note: Actual official high and low records may vary slightly from our data, if they occured in-between our weather recording intervals... More about our weather records

Advertising

Rovaniemi Weather History for the Previous 24 Hours

Scroll right to see more
 ConditionsComfort  
Time TempWeatherWind HumidityBarometerVisibility
10:20 AM
Sun, Jul 24
72 °FSunny.5 mph65%30.12 "Hg10 mi
9:50 AM70 °FPassing clouds.3 mph69%30.12 "HgN/A
9:20 AM68 °FPassing clouds.3 mph73%30.12 "HgN/A
8:50 AM66 °FPassing clouds.3 mph83%30.12 "HgN/A
8:20 AM66 °FPassing clouds.3 mph83%30.12 "HgN/A
7:50 AM64 °FSunny.3 mph88%30.12 "Hg10 mi
7:20 AM64 °FSunny.3 mph88%30.12 "Hg10 mi
6:50 AM63 °FSunny.2 mph88%30.12 "Hg10 mi
6:20 AM63 °FSunny.2 mph88%30.12 "Hg10 mi
5:50 AM61 °FSunny.2 mph94%30.12 "Hg10 mi
5:20 AM61 °FSunny.2 mph94%30.12 "Hg10 mi
4:50 AM61 °FSunny.3 mph94%30.12 "Hg10 mi
4:20 AM61 °FClear.2 mph94%30.12 "Hg10 mi
3:50 AM61 °FClear.3 mph94%30.12 "Hg10 mi
3:20 AM61 °FClear.3 mph88%30.12 "Hg10 mi
2:50 AM61 °FClear.3 mph94%30.12 "Hg10 mi
2:20 AM61 °FClear.5 mph94%30.12 "Hg10 mi
1:50 AM63 °FClear.5 mph88%30.12 "Hg10 mi
1:20 AM63 °FClear.5 mph88%30.12 "Hg10 mi
12:50 AM64 °FClear.5 mph83%30.12 "Hg10 mi
12:20 AM64 °FSunny.6 mph83%30.12 "Hg10 mi
11:50 PM
Sat, Jul 23
64 °FSunny.6 mph83%30.12 "Hg10 mi
11:20 PM66 °FSunny.5 mph78%30.12 "Hg10 mi
10:50 PM66 °FSunny.5 mph78%30.12 "Hg10 mi
10:20 PM68 °FSunny.3 mph73%30.12 "Hg10 mi
9:50 PM70 °FSunny.3 mph69%30.12 "Hg10 mi
9:20 PM70 °FSunny.5 mph64%30.12 "Hg10 mi
8:50 PM72 °FPassing clouds.6 mph61%30.12 "HgN/A
8:20 PM72 °FSunny.6 mph65%30.12 "Hg10 mi
7:50 PM72 °FSunny.6 mph61%30.12 "Hg10 mi
7:20 PM73 °FPassing clouds.3 mph53%30.12 "HgN/A
6:50 PM73 °FPassing clouds.5 mph53%30.12 "HgN/A
6:20 PM73 °FScattered clouds.5 mph50%30.12 "HgN/A
5:50 PM75 °FPassing clouds.6 mph47%30.12 "HgN/A
5:20 PM73 °FPassing clouds.5 mph50%30.12 "HgN/A
4:50 PM73 °FPassing clouds.6 mph50%30.12 "HgN/A
4:20 PM73 °FPassing clouds.7 mph47%30.12 "HgN/A
3:50 PM73 °FPassing clouds.6 mph44%30.12 "HgN/A
3:20 PM72 °FScattered clouds.5 mph44%30.12 "HgN/A
2:50 PM72 °FBroken clouds.3 mph41%30.15 "HgN/A
2:20 PM72 °FPassing clouds.7 mph41%30.15 "HgN/A
1:50 PM70 °FSunny.7 mph38%30.15 "Hg10 mi
1:20 PM70 °FPassing clouds.5 mph50%30.15 "HgN/A
12:50 PM68 °FPassing clouds.6 mph56%30.15 "HgN/A
12:20 PM68 °FPassing clouds.6 mph53%30.15 "HgN/A
11:50 AM68 °FSunny.6 mph53%30.15 "Hg10 mi
11:20 AM68 °FPassing clouds.6 mph49%30.15 "HgN/A
Weather by CustomWeather, © 2016

See weather overviewHow to use our weather pages